Time,TemperatureF,DewpointF,PressureIn,WindDirection,WindDirectionDegrees,WindSpeedMPH,WindSpeedGustMPH,Humidity,HourlyPrecipIn,Conditions,Clouds,dailyrainin,SolarRadiationWatts/m^2,SoftwareType,DateUTC
2013-08-06 00:01:00,64.0,45.0,-100.00,SW,229,3.0,8.0,50,0.00,,,0.00,0.000000,,2013-08-06 07:01:00,
2013-08-06 00:11:00,64.0,45.0,-100.00,SW,229,3.0,8.0,50,0.00,,,0.00,0.000000,,2013-08-06 07:11:00,
2013-08-06 00:22:00,64.0,45.0,-100.00,SW,229,3.0,8.0,50,0.00,,,0.00,0.000000,,2013-08-06 07:22:00,
2013-08-06 00:31:00,63.0,47.0,-100.00,SSW,208,2.0,7.0,55,0.00,,,0.00,0.000000,,2013-08-06 07:31:00,
2013-08-06 00:53:00,63.0,47.0,-100.00,SSW,208,2.0,7.0,55,0.00,,,0.00,0.000000,,2013-08-06 07:53:00,
2013-08-06 01:01:00,63.0,47.0,-100.00,SSW,208,2.0,7.0,55,0.00,,,0.00,0.000000,,2013-08-06 08:01:00,
2013-08-06 01:11:00,63.0,47.0,-100.00,SSW,208,2.0,7.0,55,0.00,,,0.00,0.000000,,2013-08-06 08:11:00,
2013-08-06 01:21:00,63.0,47.0,-100.00,SSW,208,2.0,7.0,55,0.00,,,0.00,0.000000,,2013-08-06 08:21:00,
2013-08-06 01:31:00,61.0,47.0,-100.00,SW,227,1.0,3.0,59,0.00,,,0.00,0.000000,,2013-08-06 08:31:00,
2013-08-06 02:01:00,61.0,47.0,-100.00,SW,227,1.0,3.0,59,0.00,,,0.00,0.000000,,2013-08-06 09:01:00,
2013-08-06 02:11:00,61.0,47.0,-100.00,SW,227,1.0,3.0,59,0.00,,,0.00,0.000000,,2013-08-06 09:11:00,
2013-08-06 02:22:00,61.0,47.0,-100.00,SW,227,1.0,3.0,59,0.00,,,0.00,0.000000,,2013-08-06 09:22:00,
2013-08-06 02:31:00,60.0,46.0,-100.00,SSE,158,3.0,4.0,60,0.00,,,0.00,0.000000,,2013-08-06 09:31:00,
2013-08-06 03:01:00,60.0,46.0,-100.00,SSE,158,3.0,4.0,60,0.00,,,0.00,0.000000,,2013-08-06 10:01:00,
2013-08-06 03:11:00,60.0,46.0,-100.00,SSE,158,3.0,4.0,60,0.00,,,0.00,0.000000,,2013-08-06 10:11:00,
2013-08-06 03:22:00,60.0,46.0,-100.00,SSE,158,3.0,4.0,60,0.00,,,0.00,0.000000,,2013-08-06 10:22:00,
2013-08-06 03:31:00,59.0,47.0,-100.00,SSW,211,3.0,5.0,64,0.00,,,-99.99,0.000000,,2013-08-06 10:31:00,
2013-08-06 04:01:00,59.0,47.0,-100.00,SSW,211,3.0,5.0,64,0.00,,,-99.99,0.000000,,2013-08-06 11:01:00,
2013-08-06 04:11:00,59.0,47.0,-100.00,SSW,211,3.0,5.0,64,0.00,,,-99.99,0.000000,,2013-08-06 11:11:00,
2013-08-06 04:21:00,59.0,47.0,-100.00,SSW,211,3.0,5.0,64,0.00,,,-99.99,0.000000,,2013-08-06 11:21:00,
2013-08-06 04:31:00,57.0,44.0,-100.00,South,190,2.0,4.0,61,0.00,,,0.00,0.000000,,2013-08-06 11:31:00,
2013-08-06 05:01:00,57.0,44.0,-100.00,South,190,2.0,4.0,61,0.00,,,0.00,0.000000,,2013-08-06 12:01:00,
2013-08-06 05:11:00,57.0,44.0,-100.00,South,190,2.0,4.0,61,0.00,,,0.00,0.000000,,2013-08-06 12:11:00,
2013-08-06 05:22:00,57.0,44.0,-100.00,South,190,2.0,4.0,61,0.00,,,0.00,0.000000,,2013-08-06 12:22:00,
2013-08-06 05:31:00,56.0,41.0,-100.00,SSW,205,3.0,5.0,57,0.00,,,0.00,0.000000,,2013-08-06 12:31:00,
2013-08-06 05:52:00,56.0,41.0,-100.00,SSW,205,3.0,5.0,57,0.00,,,0.00,0.000000,,2013-08-06 12:52:00,
2013-08-06 06:01:00,56.0,41.0,-100.00,SSW,205,3.0,5.0,57,0.00,,,0.00,0.000000,,2013-08-06 13:01:00,
2013-08-06 06:11:00,56.0,41.0,-100.00,SSW,205,3.0,5.0,57,0.00,,,0.00,0.000000,,2013-08-06 13:11:00,
2013-08-06 06:22:00,56.0,41.0,-100.00,SSW,205,3.0,5.0,57,0.00,,,0.00,0.000000,,2013-08-06 13:22:00,
2013-08-06 06:31:00,55.0,43.0,-100.00,South,191,1.0,5.0,64,0.00,,,0.00,5.000000,,2013-08-06 13:31:00,
2013-08-06 07:01:00,55.0,43.0,-100.00,South,191,1.0,5.0,64,0.00,,,0.00,5.000000,,2013-08-06 14:01:00,
2013-08-06 07:11:00,55.0,43.0,-100.00,South,191,1.0,5.0,64,0.00,,,0.00,5.000000,,2013-08-06 14:11:00,
2013-08-06 07:21:00,55.0,43.0,-100.00,South,191,1.0,5.0,64,0.00,,,0.00,5.000000,,2013-08-06 14:21:00,
2013-08-06 07:31:00,63.0,48.0,-100.00,SSW,204,2.0,5.0,58,0.00,,,0.00,115.000000,,2013-08-06 14:31:00,
2013-08-06 08:31:00,68.0,49.0,-100.00,South,173,3.0,4.0,50,0.00,,,0.00,300.000000,,2013-08-06 15:31:00,
2013-08-06 09:22:00,68.0,49.0,-100.00,South,173,3.0,4.0,50,0.00,,,0.00,300.000000,,2013-08-06 16:22:00,
2013-08-06 09:31:00,73.0,50.0,-100.00,SSW,207,4.0,7.0,44,0.00,,,0.00,492.000000,,2013-08-06 16:31:00,
2013-08-06 10:02:00,73.0,50.0,-100.00,SSW,207,4.0,7.0,44,0.00,,,0.00,492.000000,,2013-08-06 17:02:00,
2013-08-06 10:11:00,73.0,50.0,-100.00,SSW,207,4.0,7.0,44,0.00,,,0.00,492.000000,,2013-08-06 17:11:00,
2013-08-06 10:21:00,73.0,50.0,-100.00,SSW,207,4.0,7.0,44,0.00,,,0.00,492.000000,,2013-08-06 17:21:00,
2013-08-06 10:31:00,76.0,49.0,-100.00,North,351,3.0,6.0,38,0.00,,,0.00,660.000000,,2013-08-06 17:31:00,
2013-08-06 11:01:00,76.0,49.0,-100.00,North,351,3.0,6.0,38,0.00,,,0.00,660.000000,,2013-08-06 18:01:00,
2013-08-06 11:11:00,76.0,49.0,-100.00,North,351,3.0,6.0,38,0.00,,,0.00,660.000000,,2013-08-06 18:11:00,
2013-08-06 11:22:00,76.0,49.0,-100.00,North,351,3.0,6.0,38,0.00,,,0.00,660.000000,,2013-08-06 18:22:00,
2013-08-06 11:31:00,82.0,44.0,-100.00,WSW,247,4.0,9.0,26,0.00,,,0.00,803.000000,,2013-08-06 18:31:00,
2013-08-06 12:01:00,82.0,44.0,-100.00,WSW,247,4.0,9.0,26,0.00,,,0.00,803.000000,,2013-08-06 19:01:00,
2013-08-06 12:11:00,82.0,44.0,-100.00,WSW,247,4.0,9.0,26,0.00,,,0.00,803.000000,,2013-08-06 19:11:00,
2013-08-06 12:21:00,82.0,44.0,-100.00,WSW,247,4.0,9.0,26,0.00,,,0.00,803.000000,,2013-08-06 19:21:00,
2013-08-06 12:31:00,85.0,34.0,-100.00,SSW,202,7.0,13.0,16,0.00,,,0.00,893.000000,,2013-08-06 19:31:00,
2013-08-06 13:01:00,85.0,34.0,-100.00,SSW,202,7.0,13.0,16,0.00,,,0.00,893.000000,,2013-08-06 20:01:00,
2013-08-06 13:11:00,85.0,34.0,-100.00,SSW,202,7.0,13.0,16,0.00,,,0.00,893.000000,,2013-08-06 20:11:00,
2013-08-06 13:22:00,85.0,34.0,-100.00,SSW,202,7.0,13.0,16,0.00,,,0.00,893.000000,,2013-08-06 20:22:00,
2013-08-06 13:31:00,88.0,36.0,-100.00,SSW,211,6.0,14.0,16,0.00,,,0.00,921.000000,,2013-08-06 20:31:00,
2013-08-06 14:01:00,88.0,36.0,-100.00,SSW,211,6.0,14.0,16,0.00,,,0.00,921.000000,,2013-08-06 21:01:00,
2013-08-06 14:11:00,88.0,36.0,-100.00,SSW,211,6.0,14.0,16,0.00,,,0.00,921.000000,,2013-08-06 21:11:00,
2013-08-06 14:22:00,88.0,36.0,-100.00,SSW,211,6.0,14.0,16,0.00,,,0.00,921.000000,,2013-08-06 21:22:00,
2013-08-06 14:31:00,90.0,39.0,-100.00,West,260,6.0,15.0,17,0.00,,,0.00,905.000000,,2013-08-06 21:31:00,
2013-08-06 15:01:00,90.0,39.0,-100.00,West,260,6.0,15.0,17,0.00,,,0.00,905.000000,,2013-08-06 22:01:00,
2013-08-06 15:11:00,90.0,39.0,-100.00,West,260,6.0,15.0,17,0.00,,,0.00,905.000000,,2013-08-06 22:11:00,
2013-08-06 15:21:00,90.0,39.0,-100.00,West,260,6.0,15.0,17,0.00,,,0.00,905.000000,,2013-08-06 22:21:00,
2013-08-06 16:22:00,89.0,32.0,-100.00,SW,223,7.0,15.0,13,0.00,,,0.00,824.000000,,2013-08-06 23:22:00,
2013-08-06 17:11:00,90.0,34.0,-100.00,WSW,242,5.0,12.0,14,0.00,,,0.00,703.000000,,2013-08-07 00:11:00,
2013-08-06 17:31:00,89.0,37.0,-100.00,NW,307,4.0,11.0,16,0.00,,,0.00,544.000000,,2013-08-07 00:31:00,
2013-08-06 18:01:00,89.0,37.0,-100.00,NW,307,4.0,11.0,16,0.00,,,0.00,544.000000,,2013-08-07 01:01:00,
2013-08-06 18:11:00,89.0,37.0,-100.00,NW,307,4.0,11.0,16,0.00,,,0.00,544.000000,,2013-08-07 01:11:00,
2013-08-06 18:21:00,89.0,37.0,-100.00,NW,307,4.0,11.0,16,0.00,,,0.00,544.000000,,2013-08-07 01:21:00,
2013-08-06 18:31:00,86.0,36.0,-100.00,WSW,252,6.0,14.0,17,0.00,,,0.00,353.000000,,2013-08-07 01:31:00,
2013-08-06 19:02:00,86.0,36.0,-100.00,WSW,252,6.0,14.0,17,0.00,,,0.00,353.000000,,2013-08-07 02:02:00,
2013-08-06 19:11:00,86.0,36.0,-100.00,WSW,252,6.0,14.0,17,0.00,,,0.00,353.000000,,2013-08-07 02:11:00,
2013-08-06 19:22:00,86.0,36.0,-100.00,WSW,252,6.0,14.0,17,0.00,,,0.00,353.000000,,2013-08-07 02:22:00,
2013-08-06 20:01:00,81.0,35.0,-100.00,SW,231,4.0,14.0,19,0.00,,,0.00,137.000000,,2013-08-07 03:01:00,
2013-08-06 20:11:00,81.0,35.0,-100.00,SW,231,4.0,14.0,19,0.00,,,0.00,137.000000,,2013-08-07 03:11:00,
2013-08-06 20:31:00,76.0,38.0,-100.00,SW,216,5.0,12.0,25,0.00,,,0.00,24.000000,,2013-08-07 03:31:00,
2013-08-06 21:01:00,76.0,38.0,-100.00,SW,216,5.0,12.0,25,0.00,,,0.00,24.000000,,2013-08-07 04:01:00,
2013-08-06 21:11:00,76.0,38.0,-100.00,SW,216,5.0,12.0,25,0.00,,,0.00,24.000000,,2013-08-07 04:11:00,
2013-08-06 22:31:00,71.0,38.0,-100.00,SSW,209,2.0,6.0,30,0.00,,,0.00,0.000000,,2013-08-07 05:31:00,
2013-08-06 23:31:00,67.0,41.0,-100.00,WSW,237,3.0,8.0,39,0.00,,,0.00,0.000000,,2013-08-07 06:31:00,